Wind_Speed
50 50 50 50 50 50 49 49 49 49 49 49 49 49 49 49 49 50 50 50 51 51 51 51 52 52 52 52 53 53 53 53 53 53 53 53 53 54 54 54 54 55 55 55 56 57 58 59 59 60 61 62
51 50 50 50 50 50 50 50 50 50 50 50 50 50 50 51 51 51 52 52 52 52 53 53 53 53 53 54 54 54 54 54 54 54 54 54 54 55 55 55 56 56 56 57 57 58 59 60 61 61 62 63
50 50 50 50 50 50 50 50 51 51 51 51 51 52 52 52 53 53 53 53 53 54 54 54 54 54 54 54 55 55 55 55 55 55 56 56 56 57 57 57 58 58 58 59 59 60 60 61 62 63 64 65
50 51 51 51 51 52 52 52 53 53 53 53 53 53 54 54 54 54 54 54 55 55 55 55 55 55 55 55 56 56 56 56 57 57 57 58 58 58 59 59 59 60 60 61 61 62 62 63 63 64 65 66
52 52 52 53 54 54 54 54 55 55 55 54 54 54 55 55 55 55 55 55 55 56 56 56 56 56 56 56 57 57 57 58 58 59 59 59 60 60 60 60 61 61 62 62 63 63 64 64 65 66 66 67
53 54 55 55 56 56 56 56 56 56 55 55 55 55 55 55 55 56 56 56 56 56 57 57 57 57 58 58 58 58 59 59 60 60 61 61 61 61 62 62 62 62 63 63 64 64 65 66 66 67 68 68
55 56 56 56 57 57 57 57 56 56 56 56 56 56 56 56 56 57 57 57 58 58 58 58 58 59 59 59 59 60 60 61 61 61 62 62 62 63 63 63 63 63 63 64 64 65 65 66 67 68 69 69
56 57 57 57 58 58 58 57 57 57 56 56 56 57 57 58 58 59 59 59 59 59 59 59 59 60 60 60 60 61 61 62 62 62 63 63 63 63 63 63 63 64 64 64 65 66 66 67 68 68 69 69
57 57 58 58 58 58 58 57 57 58 58 58 59 59 60 60 60 60 60 60 60 60 60 60 61 61 61 61 61 61 62 62 63 63 63 63 63 63 63 63 63 64 65 65 66 67 67 67 67 67 68 68
58 58 58 58 58 58 58 58 59 59 60 60 61 61 62 62 62 62 61 61 61 61 61 61 61 61 61 61 62 62 63 63 64 64 64 64 63 63 63 63 63 64 65 66 67 67 67 67 66 65 65 65
59 59 59 59 59 59 60 60 61 62 62 62 62 63 63 63 62 62 62 62 62 62 62 62 62 62 62 62 63 63 64 64 65 65 64 64 63 63 63 63 64 65 66 66 66 67 67 66 65 63 62 61
60 60 60 60 61 61 61 62 63 63 63 63 64 64 63 63 63 62 62 62 62 62 62 62 62 62 63 63 64 64 65 65 65 64 64 63 63 63 63 64 64 65 66 66 65 65 65 64 63 61 59 58
62 62 62 62 62 63 63 63 64 64 64 64 64 64 64 63 63 62 62 62 62 62 62 63 63 63 64 64 64 65 65 65 64 64 64 64 64 64 64 64 64 65 65 64 64 63 62 61 60 59 58 57
63 63 63 63 63 64 64 65 65 65 65 65 64 64 63 63 63 62 62 62 62 62 63 63 64 64 64 64 64 64 64 64 64 64 64 64 64 64 64 64 63 63 62 62 62 61 60 59 58 58 58 56
64 64 64 64 65 65 65 66 65 65 65 64 64 63 63 63 62 62 62 62 62 63 63 64 64 64 64 64 64 64 64 64 64 64 65 64 64 64 63 62 61 60 60 59 59 59 58 57 57 57 57 57
65 65 65 66 66 66 66 66 65 65 65 64 64 63 63 62 62 62 62 62 62 63 63 64 64 64 64 64 64 64 64 64 64 64 64 64 63 63 62 61 60 59 58 58 58 58 57 56 57 57 57 57
66 66 66 66 66 66 66 65 65 65 64 64 63 63 62 62 62 62 62 62 63 63 63 63 63 63 63 63 63 63 63 63 64 64 63 63 62 61 60 59 59 58 57 57 57 57 56 56 56 57 57 58
66 66 66 66 65 65 65 65 64 64 63 63 63 63 63 63 63 63 63 63 63 63 63 63 63 63 63 63 63 63 63 63 63 63 62 62 61 60 60 59 59 58 57 57 56 56 56 56 56 56 57 58
65 65 65 65 65 64 64 64 64 63 63 63 63 63 63 63 63 63 63 63 63 64 63 63 63 64 63 63 63 63 63 63 63 62 62 61 61 60 60 60 59 59 58 58 57 56 56 56 56 56 57 58
64 64 64 64 64 63 63 63 63 63 63 63 63 63 63 63 63 63 63 64 64 64 64 64 64 64 64 63 63 63 63 63 63 63 62 62 61 61 61 61 61 61 60 60 59 59 58 58 57 57 57 58
63 63 63 63 63 62 62 62 62 62 62 62 62 63 63 63 63 64 64 64 64 64 64 64 64 64 64 64 64 64 64 64 64 64 63 63 63 63 63 63 63 63 63 63 62 62 61 60 59 59 58 58
62 62 62 62 61 61 61 61 61 62 62 62 63 63 63 64 64 64 64 64 64 64 64 64 64 65 65 65 66 66 66 66 65 65 65 65 65 65 66 66 66 65 65 65 64 64 63 62 60 59 59 59
60 60 60 60 61 61 61 61 62 62 62 63 63 63 64 64 65 65 65 65 64 64 65 65 66 66 67 67 67 67 68 68 67 67 67 67 67 68 68 68 67 67 66 65 65 64 63 63 61 60 59 59
59 59 59 60 60 61 61 62 62 63 63 64 64 64 65 65 65 65 65 65 65 65 66 67 68 68 69 70 70 70 70 70 70 69 69 69 69 69 69 69 68 67 67 66 65 64 64 63 62 61 61 60
58 59 59 60 61 62 62 63 63 64 64 64 65 65 66 66 66 66 65 66 66 67 68 69 70 71 71 72 72 72 72 72 71 71 71 71 70 70 69 69 69 69 68 68 67 66 65 65 64 63 63 62
59 59 60 61 62 63 64 64 65 65 65 65 66 66 66 66 66 66 66 67 68 69 70 71 72 73 74 74 74 74 74 73 73 72 72 72 71 71 71 70 70 70 70 70 69 68 67 66 66 65 64 64
60 60 62 63 64 65 65 66 66 66 66 66 66 66 66 66 66 67 67 68 69 70 71 73 74 75 76 76 76 76 76 75 74 74 74 73 73 72 72 71 71 71 71 71 70 70 69 68 67 66 65 66
61 62 63 64 65 66 66 67 67 67 66 66 66 66 67 67 67 68 68 69 70 71 73 75 76 77 77 77 78 77 77 77 76 76 76 75 74 74 73 72 72 71 71 71 71 71 70 69 68 67 66 66
62 63 63 64 66 67 67 67 67 67 66 66 65 66 67 68 69 69 70 71 73 74 75 76 77 78 78 78 78 79 78 78 78 77 76 76 75 75 74 73 72 71 71 71 71 72 71 70 69 68 67 67
63 63 63 65 66 67 67 67 67 67 66 66 66 67 68 69 71 72 73 74 75 75 76 76 77 77 78 79 79 79 79 78 77 76 76 75 75 75 74 74 72 71 70 70 71 71 71 71 70 69 68 68
64 64 65 66 67 68 69 69 68 68 68 68 68 69 70 71 72 73 73 74 75 75 76 76 76 77 78 79 79 78 77 76 75 75 74 74 74 74 74 73 73 71 70 70 70 70 71 71 71 70 70 69
Wind_Direction
270 271 271 271 271 271 271 271 271 270 270 270 270 269 269 268 268 267 267 267 266 266 266 265 265 265 266 266 266 267 267 268 268 269 269 269 270 270 271 271 272 272 272 272 272 272 272 272 272 272 272 272
271 271 271 271 271 271 272 271 271 271 270 270 270 269 269 268 268 268 267 267 267 267 266 266 266 267 267 267 268 268 269 269 269 270 270 270 271 271 272 272 273 273 273 272 272 272 272 272 272 272 272 272
271 271 271 272 272 272 271 271 271 271 271 270 270 270 269 269 269 269 269 268 268 268 268 268 268 268 268 269 269 269 269 270 270 271 271 272 272 273 273 274 274 274 273 273 272 272 271 271 271 272 272 273
272 272 272 272 272 272 271 271 271 271 271 271 271 270 270 270 270 270 270 270 270 270 270 270 270 270 270 270 270 270 270 271 271 272 272 273 273 274 274 274 275 274 274 274 273 272 272 272 272 272 272 273
272 272 272 272 272 272 271 271 271 271 271 271 271 271 271 271 271 271 272 271 271 271 271 271 271 271 271 271 271 271 271 272 272 272 273 273 274 274 275 275 275 274 274 274 273 273 273 273 273 273 273 273
272 272 272 272 272 272 272 271 271 271 271 271 271 272 272 272 272 273 272 272 272 272 272 272 272 272 272 272 272 272 272 273 273 273 274 274 275 275 275 275 275 275 274 274 274 274 274 274 274 274 274 274
272 272 272 272 272 272 272 272 272 272 272 272 273 273 273 273 273 273 272 272 272 273 273 273 273 273 273 273 273 273 273 273 274 274 275 275 276 276 276 276 276 275 275 274 274 274 274 274 274 274 274 274
272 272 272 272 272 272 272 273 273 273 274 274 274 274 274 273 273 273 273 273 274 274 274 274 274 273 273 273 273 273 274 274 274 275 275 276 276 277 277 276 276 275 275 274 274 274 274 275 275 275 275 274
272 272 272 272 273 273 274 274 274 274 274 274 274 273 273 274 274 275 275 275 275 275 275 275 274 274 274 274 274 274 275 275 275 276 276 277 277 277 277 276 276 275 275 275 275 275 275 275 274 274 274 273
272 272 273 273 274 274 275 275 275 274 274 274 274 275 275 276 276 276 277 276 276 276 276 276 276 275 276 275 276 276 276 276 276 277 277 277 277 277 276 276 275 275 275 275 275 275 275 275 274 273 272 272
274 274 275 275 275 275 275 275 275 275 275 275 276 277 277 278 278 278 278 278 277 277 277 277 277 277 277 277 277 277 277 277 278 278 278 278 277 277 276 276 276 276 276 275 275 274 274 274 272 271 270 269
275 276 276 276 276 276 276 275 275 276 276 277 277 278 278 279 279 279 279 279 279 279 278 278 278 278 278 278 278 278 278 278 278 278 278 277 277 277 276 276 276 276 275 275 274 273 273 272 271 270 268 266
276 277 277 276 276 276 276 276 276 277 277 278 278 279 279 279 279 279 279 279 279 279 279 279 278 278 278 278 278 278 278 278 278 278 278 277 277 277 277 276 276 275 274 273 272 272 271 270 269 268 267 264
277 277 277 277 276 276 276 277 277 278 278 279 279 279 279 279 279 279 279 278 278 278 278 278 278 278 278 278 278 278 278 278 278 278 278 278 278 277 277 276 275 274 273 272 271 271 270 269 268 267 265 263
277 277 277 277 277 277 277 278 278 278 279 279 279 279 279 278 278 278 277 277 277 277 277 277 277 278 278 278 277 277 277 277 277 278 278 278 278 277 276 275 274 273 272 271 271 270 270 269 268 266 264 261
277 277 277 278 278 278 278 278 278 278 278 278 278 278 277 277 277 276 276 276 276 276 276 277 277 277 277 277 277 277 277 277 277 277 277 277 277 276 275 274 273 272 271 271 271 271 270 269 268 266 264 260
278 278 278 278 278 278 278 278 278 278 278 277 277 276 276 275 275 275 275 275 275 276 276 276 276 276 276 276 276 276 276 276 276 276 276 276 275 275 274 273 273 272 272 272 272 271 270 269 268 266 264 260
278 277 277 277 277 277 277 277 277 277 276 276 275 275 275 274 274 274 274 275 275 275 275 275 275 275 275 275 275 275 275 275 275 275 275 275 275 275 274 274 273 273 273 272 272 271 271 270 268 266 264 261
277 277 277 277 277 277 276 276 276 275 275 274 274 274 274 274 274 274 274 275 275 275 275 275 274 274 274 274 274 274 275 275 275 275 275 275 275 275 274 274 274 274 273 272 272 271 271 270 268 266 264 262
276 276 276 276 276 275 275 275 274 274 274 273 273 273 273 274 274 274 274 275 274 274 274 274 273 273 274 274 274 274 274 274 274 274 274 275 275 275 275 274 274 274 274 273 273 272 271 270 269 267 265 263
276 276 276 275 275 274 274 273 273 273 273 273 273 273 273 274 274 274 274 274 274 274 273 273 273 273 273 273 273 274 274 274 274 274 274 274 274 274 275 275 274 274 274 274 273 273 272 270 269 268 266 264
276 275 275 275 274 274 273 273 273 272 272 273 273 273 273 274 274 274 274 274 273 273 272 272 272 273 273 273 273 274 274 274 274 274 274 274 274 274 274 274 274 274 274 273 273 272 272 270 269 267 266 264
275 275 274 274 273 273 273 273 272 272 272 272 273 273 274 274 274 274 274 273 273 272 272 272 272 272 272 273 273 273 273 273 273 273 273 273 273 273 273 273 273 273 273 272 272 272 271 270 269 267 265 264
274 274 274 273 273 273 272 272 272 272 272 272 273 273 274 274 274 274 273 273 272 272 271 271 271 272 272 272 272 273 273 273 273 273 273 273 273 273 273 273 273 272 272 272 271 271 271 270 269 268 266 264
274 274 274 273 273 272 272 272 272 272 272 272 272 273 274 274 273 273 272 271 271 270 270 270 271 271 272 272 272 273 273 273 274 274 274 274 274 274 274 273 273 272 272 271 270 270 269 269 268 267 267 265
274 274 273 272 271 271 271 271 271 271 271 272 272 273 274 273 272 271 270 270 269 269 270 270 271 271 272 273 273 274 274 275 275 275 275 275 274 274 274 273 273 272 272 271 270 269 268 267 267 266 266 265
273 272 271 270 270 269 270 270 270 270 270 271 272 272 272 271 270 269 268 268 268 269 269 270 271 272 273 273 274 275 275 276 276 276 275 275 274 274 273 272 272 272 271 271 270 269 268 266 265 265 264 263
271 270 269 269 269 268 269 269 269 269 270 270 271 271 270 269 268 268 268 268 268 269 270 270 271 272 273 274 274 274 275 275 275 275 275 274 273 272 272 271 271 270 270 270 269 268 267 266 265 264 263 262
269 269 269 268 268 268 268 268 268 268 269 270 270 269 269 268 268 268 268 269 269 270 270 271 272 272 273 273 273 273 274 274 274 274 274 273 273 272 271 271 270 270 270 270 269 268 267 266 265 263 262 261
268 268 268 267 267 267 267 267 268 269 269 269 269 269 268 269 269 269 270 270 270 270 271 271 272 272 273 273 273 274 274 274 274 273 273 273 273 272 272 271 271 271 270 270 269 269 268 266 265 263 262 261
268 267 267 266 266 267 267 268 269 269 270 270 270 270 270 270 270 270 270 270 270 271 271 271 272 272 272 273 273 274 274 273 273 273 273 273 272 272 272 272 272 271 271 271 270 269 269 267 266 264 262 261
Height
5788 5788 5787 5787 5786 5786 5785 5784 5784 5783 5782 5781 5781 5780 5779 5778 5778 5777 5777 5777 5777 5776 5776 5776 5775 5775 5774 5774 5774 5774 5774 5774 5773 5773 5773 5773 5772 5772 5772 5772 5772 5772 5772 5772 5772 5771 5770 5769 5769 5769 5770 5770
5784 5783 5783 5782 5781 5780 5780 5779 5778 5777 5777 5776 5775 5774 5773 5773 5772 5772 5771 5771 5771 5770 5770 5769 5769 5769 5768 5768 5768 5767 5767 5767 5767 5767 5766 5766 5766 5765 5765 5765 5765 5765 5765 5766 5766 5765 5764 5763 5763 5762 5763 5763
5779 5778 5777 5777 5776 5775 5774 5773 5772 5772 5771 5770 5769 5768 5768 5767 5766 5766 5765 5765 5764 5764 5763 5763 5763 5762 5762 5761 5761 5761 5761 5760 5760 5760 5759 5759 5758 5758 5757 5757 5757 5757 5758 5758 5758 5758 5757 5757 5756 5756 5756 5755
5774 5773 5772 5771 5770 5769 5768 5767 5767 5766 5765 5764 5763 5763 5762 5761 5760 5760 5759 5758 5758 5757 5757 5756 5756 5755 5755 5755 5754 5754 5754 5753 5753 5753 5752 5751 5751 5751 5750 5750 5750 5750 5750 5750 5750 5750 5750 5750 5749 5749 5749 5748
5768 5767 5766 5765 5764 5763 5763 5762 5761 5760 5759 5758 5757 5756 5755 5755 5754 5753 5753 5752 5751 5750 5750 5749 5748 5748 5748 5748 5747 5747 5747 5746 5746 5745 5744 5744 5744 5743 5743 5742 5742 5742 5742 5742 5742 5742 5742 5742 5742 5741 5741 5741
5762 5761 5760 5759 5758 5757 5756 5756 5755 5753 5752 5751 5751 5750 5749 5748 5748 5747 5746 5744 5744 5743 5742 5742 5741 5741 5740 5740 5740 5740 5739 5739 5738 5738 5737 5736 5736 5736 5735 5735 5735 5735 5734 5734 5734 5734 5734 5734 5734 5734 5733 5733
5756 5755 5754 5753 5752 5751 5750 5749 5748 5747 5746 5745 5744 5743 5743 5742 5740 5739 5738 5737 5736 5736 5735 5735 5734 5734 5733 5733 5733 5732 5732 5731 5731 5730 5730 5729 5729 5728 5727 5727 5727 5727 5727 5727 5726 5726 5726 5726 5725 5725 5725 5724
5750 5749 5748 5746 5745 5744 5743 5742 5741 5740 5740 5739 5738 5736 5735 5733 5732 5731 5731 5730 5729 5729 5728 5728 5727 5726 5726 5726 5725 5725 5724 5724 5723 5723 5722 5722 5721 5720 5720 5720 5719 5719 5718 5718 5718 5717 5717 5717 5717 5716 5716 5715
5744 5742 5741 5740 5739 5738 5737 5736 5735 5734 5733 5731 5730 5728 5727 5726 5725 5724 5724 5723 5722 5722 5721 5720 5720 5719 5718 5718 5718 5717 5717 5716 5716 5715 5714 5714 5713 5713 5712 5712 5711 5710 5710 5709 5709 5709 5708 5708 5708 5707 5707 5706
5737 5736 5735 5733 5732 5731 5730 5729 5728 5726 5725 5723 5722 5721 5720 5719 5718 5717 5716 5716 5715 5714 5713 5713 5712 5711 5711 5710 5710 5709 5708 5708 5707 5707 5706 5706 5705 5705 5704 5703 5703 5702 5701 5701 5700 5700 5699 5699 5699 5699 5698 5697
5730 5729 5728 5726 5725 5724 5723 5721 5720 5718 5717 5716 5715 5714 5712 5711 5711 5710 5709 5708 5707 5706 5705 5704 5704 5703 5702 5702 5701 5700 5700 5699 5699 5698 5698 5698 5697 5696 5696 5695 5694 5694 5693 5692 5692 5691 5691 5691 5691 5690 5690 5690
5723 5721 5720 5719 5718 5716 5715 5713 5712 5711 5710 5709 5707 5706 5705 5704 5703 5702 5701 5700 5699 5698 5697 5696 5695 5695 5694 5693 5693 5692 5692 5691 5691 5690 5690 5689 5689 5688 5687 5687 5686 5685 5685 5684 5683 5683 5682 5682 5682 5682 5683 5682
5715 5714 5713 5711 5710 5709 5707 5706 5704 5703 5702 5701 5700 5698 5697 5696 5695 5694 5693 5692 5691 5690 5689 5688 5687 5686 5685 5685 5685 5684 5684 5683 5682 5682 5681 5681 5680 5680 5679 5678 5678 5677 5677 5676 5675 5675 5675 5675 5674 5675 5675 5675
5707 5706 5705 5703 5702 5700 5699 5698 5696 5695 5694 5693 5692 5690 5689 5688 5687 5686 5685 5684 5683 5682 5681 5680 5679 5678 5678 5677 5677 5676 5676 5675 5674 5673 5673 5672 5672 5672 5671 5670 5670 5670 5669 5668 5668 5668 5667 5667 5667 5667 5668 5668
5699 5698 5696 5695 5694 5692 5691 5690 5688 5687 5686 5685 5683 5683 5681 5680 5679 5678 5677 5676 5676 5675 5673 5672 5671 5671 5670 5669 5669 5668 5668 5667 5666 5666 5665 5665 5664 5664 5663 5663 5662 5662 5661 5661 5660 5660 5660 5660 5660 5660 5660 5661
5691 5689 5688 5687 5685 5684 5683 5682 5680 5679 5678 5676 5676 5675 5674 5673 5672 5671 5670 5669 5668 5667 5666 5665 5664 5663 5662 5662 5661 5661 5660 5659 5658 5658 5657 5657 5656 5656 5655 5655 5655 5654 5654 5654 5653 5653 5653 5653 5653 5653 5654 5654
5682 5681 5680 5679 5677 5676 5675 5673 5672 5671 5669 5668 5667 5667 5666 5665 5664 5663 5662 5661 5660 5659 5658 5657 5656 5655 5655 5654 5653 5653 5652 5651 5650 5650 5649 5649 5649 5648 5648 5648 5647 5647 5647 5647 5647 5646 5646 5646 5647 5647 5647 5647
5674 5673 5672 5670 5669 5668 5666 5665 5664 5662 5661 5660 5659 5658 5657 5656 5656 5655 5654 5653 5652 5651 5650 5649 5649 5648 5647 5646 5646 5645 5644 5643 5643 5642 5642 5641 5641 5641 5641 5640 5640 5640 5640 5640 5640 5640 5639 5640 5640 5640 5640 5640
5666 5665 5663 5662 5661 5659 5658 5657 5655 5654 5653 5651 5651 5650 5649 5648 5647 5647 5646 5645 5644 5643 5642 5642 5640 5639 5639 5638 5638 5637 5636 5636 5635 5635 5634 5634 5634 5634 5633 5633 5632 5632 5632 5632 5633 5633 5633 5633 5633 5633 5633 5633
5658 5657 5655 5654 5652 5651 5649 5648 5647 5646 5644 5643 5642 5642 5641 5640 5639 5639 5638 5637 5636 5635 5634 5633 5632 5632 5631 5630 5630 5629 5628 5628 5627 5627 5627 5627 5626 5626 5626 5625 5625 5625 5625 5625 5625 5625 5625 5625 5626 5626 5626 5626
5650 5648 5647 5645 5644 5642 5641 5640 5638 5637 5636 5635 5634 5633 5632 5632 5631 5630 5630 5629 5628 5627 5626 5625 5624 5624 5623 5622 5621 5621 5620 5620 5619 5619 5619 5619 5619 5618 5618 5618 5617 5617 5617 5617 5618 5617 5618 5618 5618 5618 5618 5619
5642 5640 5638 5637 5635 5634 5632 5631 5630 5629 5628 5627 5626 5625 5624 5623 5623 5622 5621 5620 5620 5619 5618 5617 5616 5615 5614 5613 5613 5613 5612 5612 5611 5611 5611 5611 5611 5610 5610 5610 5609 5609 5609 5609 5609 5609 5609 5609 5610 5611 5611 5611
5633 5632 5630 5628 5627 5625 5624 5623 5622 5621 5620 5619 5618 5617 5616 5615 5614 5613 5612 5612 5611 5610 5609 5608 5607 5607 5606 5605 5605 5604 5604 5603 5603 5603 5603 5603 5603 5602 5602 5602 5601 5601 5601 5601 5601 5601 5601 5601 5602 5603 5603 5603
5625 5623 5621 5620 5618 5617 5616 5615 5614 5613 5612 5610 5609 5608 5607 5606 5606 5605 5604 5603 5602 5601 5601 5600 5599 5598 5597 5597 5596 5596 5595 5595 5595 5594 5594 5594 5594 5593 5593 5593 5592 5592 5592 5592 5593 5593 5593 5593 5593 5594 5594 5595
5616 5615 5613 5611 5610 5609 5607 5607 5605 5604 5603 5602 5601 5600 5599 5598 5597 5596 5595 5594 5593 5593 5592 5591 5590 5589 5588 5588 5587 5587 5587 5586 5586 5585 5585 5585 5584 5584 5584 5584 5583 5583 5583 5583 5584 5585 5585 5585 5585 5585 5586 5586
5607 5606 5604 5603 5602 5600 5599 5598 5597 5595 5594 5593 5592 5591 5590 5589 5588 5587 5586 5585 5585 5584 5583 5582 5581 5580 5579 5578 5578 5577 5577 5577 5577 5576 5576 5575 5575 5575 5575 5575 5574 5573 5573 5573 5574 5575 5576 5576 5576 5577 5577 5577
5599 5597 5596 5594 5593 5592 5590 5589 5588 5587 5586 5585 5583 5582 5582 5581 5580 5579 5578 5577 5575 5574 5573 5572 5571 5570 5569 5569 5568 5568 5567 5567 5567 5566 5566 5565 5565 5565 5565 5565 5565 5564 5564 5564 5564 5564 5566 5567 5567 5568 5568 5568
5590 5589 5587 5586 5585 5584 5582 5581 5580 5578 5577 5576 5575 5574 5573 5572 5571 5570 5568 5567 5566 5564 5563 5562 5561 5561 5560 5559 5558 5558 5557 5557 5557 5556 5555 5555 5555 5555 5555 5556 5556 5555 5555 5554 5554 5554 5556 5556 5557 5559 5559 5559
5581 5580 5579 5578 5576 5575 5574 5573 5571 5570 5568 5567 5566 5565 5563 5562 5561 5560 5559 5558 5556 5555 5554 5553 5551 5551 5550 5549 5548 5548 5547 5547 5547 5546 5545 5545 5544 5544 5545 5546 5546 5546 5545 5545 5544 5543 5545 5546 5547 5549 5549 5549
5572 5571 5570 5569 5568 5566 5565 5563 5562 5560 5559 5558 5557 5555 5554 5552 5551 5550 5549 5548 5546 5545 5544 5543 5542 5540 5539 5538 5538 5537 5537 5537 5536 5536 5535 5534 5534 5534 5534 5534 5535 5536 5535 5535 5534 5534 5534 5534 5536 5537 5538 5539
5563 5562 5561 5559 5558 5556 5555 5553 5552 5551 5549 5548 5547 5545 5544 5543 5541 5540 5539 5537 5536 5535 5534 5533 5531 5530 5529 5528 5527 5527 5526 5526 5526 5525 5525 5524 5524 5524 5523 5523 5524 5525 5525 5524 5524 5524 5523 5523 5524 5525 5527 5527